Regional Weather Roundup
Issued by NWS

Home | Current Version | Previous Version | Text Only | Print | Product List | Glossary On
Versions: 1 2 3 4 5 6 7 8 9 10 11 12 13 14 15 16 17 18 19 20 21 22 23 24 25 26 27 28 29 30 31 32 33 34 35 36 37 38 39 40 41 42 43 44 45 46 47 48 49 50
000
ASUS43 KDTX 221810
RWRMI
MICHIGAN HOURLY REGIONAL WEATHER ROUNDUP
NATIONAL WEATHER SERVICE DETROIT/PONTIAC MI
200 PM EDT FRI AUG 22 2014

NOTE: "FAIR" INDICATES FEW OR NO CLOUDS BELOW 12,000 FEET WITH NO
SIGNIFICANT WEATHER AND/OR OBSTRUCTION TO VISIBILITY.

MIZ047>049-052>055-059>063-066>070-074>076-081>083-221900-
SOUTHEAST LOWER MICHIGAN

CITY           SKY/WX    TMP DP  RH WIND       PRES   REMARKS
ADRIAN         CLOUDY    79  71  76 N5        29.98F
6HR MIN TEMP:  70; 6HR MAX TEMP:  79;

ALMA           CLOUDY    76  68  76 E6        29.99F
ANN ARBOR      CLOUDY    80  70  71 NE6       29.98F
BAD AXE        MOSUNNY   75  65  71 N3        30.03S
6HR MIN TEMP:  62; 6HR MAX TEMP:  75;

DETROIT CITY   CLOUDY    82  68  62 VRB5      29.98F
6HR MIN TEMP:  70; 6HR MAX TEMP:  83;

DETROIT        PTSUNNY   83  71  67 NW3       29.97F
6HR MIN TEMP:  70; 6HR MAX TEMP:  83;

FLINT          CLOUDY    82  66  58 NE6       29.99F
6HR MIN TEMP:  69; 6HR MAX TEMP:  83;

GROSSE ILE     SUNNY     81  72  74 E5        29.96F
HILLSDALE      CLOUDY    79  74  84 NW3       29.99S
HOWELL         CLOUDY    76  69  79 CALM      29.99F
6HR MIN TEMP:  69; 6HR MAX TEMP:  77;


CITY           SKY/WX    TMP DP  RH WIND       PRES   REMARKS
JACKSON        CLOUDY    78  71  79 VRB5      29.99S
6HR MIN TEMP:  72; 6HR MAX TEMP:  79;

LAMBERTVILLE   CLOUDY    79  72  78 NE5       29.96F
LANSING        CLOUDY    79  69  71 E7        29.98F
6HR MIN TEMP:  70; 6HR MAX TEMP:  79;

LAPEER         NOT AVBL
MASON          CLOUDY    75  71  86 CALM      29.99F
MONROE         PTSUNNY   79  72  78 CALM      29.96F
MT. CLEMENS    PTSUNNY   80  66  61 E6        29.98S
6HR MIN TEMP:  68; 6HR MAX TEMP:  80;

PONTIAC        PTSUNNY   79  67  66 NE5       29.99F
6HR MIN TEMP:  68; 6HR MAX TEMP:  80;

PORT HOPE        N/A     68  63  84 N5        30.02S
6HR MIN TEMP:  63; 6HR MAX TEMP:  69;

PORT HURON     MOSUNNY   75  66  73 NE5       30.00S
TRI CITIES     CLOUDY    76  67  73 NE9       30.02S
6HR MIN TEMP:  67; 6HR MAX TEMP:  77;

YPSILANTI      PTSUNNY   85  70  60 NE6       29.98F
6HR MIN TEMP:  73; 6HR MAX TEMP:  85;

$$
MIZ043>046-050>051-056>058-064>065-071>073-077>080-221900-
SOUTHWEST LOWER MICHIGAN

CITY           SKY/WX    TMP DP  RH WIND       PRES   REMARKS
BATTLE CREEK   CLOUDY    79  71  76 N6        29.99S
6HR MIN TEMP:  70; 6HR MAX TEMP:  79;

BENTON HARBOR  CLOUDY    78  71  79 W13       29.97R
6HR MIN TEMP:  69; 6HR MAX TEMP:  81;

BIG RAPIDS     CLOUDY    77  71  80 E6        29.99F
6HR MIN TEMP:  66; 6HR MAX TEMP:  78;

COLDWATER      CLOUDY    82  73  73 NW7       29.97F
6HR MIN TEMP:  70; 6HR MAX TEMP:  83;

HOLLAND        CLOUDY    80  72  76 CALM      29.98S
6HR MIN TEMP:  71; 6HR MAX TEMP:  80;

GRAND RAPIDS   CLOUDY    78  75  90 E5        29.98F
6HR MIN TEMP:  70; 6HR MAX TEMP:  79;

KALAMAZOO      CLOUDY    80  71  74 NW5       29.97F
6HR MIN TEMP:  70; 6HR MAX TEMP:  81;

MARSHALL       CLOUDY    76  71  84 NW3       29.97F
MUSKEGON       CLOUDY    81  71  71 S6        29.96F
6HR MIN TEMP:  71; 6HR MAX TEMP:  81;

$$
MIZ016>042-221900-
NORTHERN LOWER MICHIGAN

CITY           SKY/WX    TMP DP  RH WIND       PRES   REMARKS
ALPENA         MOSUNNY   76  66  71 E9        30.02F
6HR MIN TEMP:  61; 6HR MAX TEMP:  76;

BEAVER ISLAND  CLOUDY    73  67  81 SE6       30.02S
6HR MIN TEMP:  66; 6HR MAX TEMP:  73;

BELLAIRE       PTSUNNY   80  65  59 S6        29.99F
6HR MIN TEMP:  66; 6HR MAX TEMP:  80;

CADILLAC       CLOUDY    73  66  78 E7        30.02S
CHARLEVOIX     CLOUDY    77  68  74 E5        30.03S
6HR MIN TEMP:  68; 6HR MAX TEMP:  77;

FRANKFORT      DRIZZLE   73  68  86 CALM      29.99S
GAYLORD        PTSUNNY   75  63  66 S6        30.04R
6HR MIN TEMP:  64; 6HR MAX TEMP:  75;

GRAYLING       CLOUDY    75  67  75 SE5       30.03F
HARBOR SPRINGS CLOUDY    73  66  77 NE7       30.02S
HOUGHTON LAKE  CLOUDY    74  64  71 VRB3      30.03F
6HR MIN TEMP:  63; 6HR MAX TEMP:  74;

MANISTEE       CLOUDY    75  68  78 E6        29.99S
OSCODA         MOSUNNY   73  64  75 E6        30.02S
PELLSTON       CLOUDY    72  65  78 SE3       30.03R
6HR MIN TEMP:  64; 6HR MAX TEMP:  72; 6HR PCP: TRACE;

TRAVERSE CITY  PTSUNNY   80  66  62 S5        29.97F
6HR MIN TEMP:  69; 6HR MAX TEMP:  81;

$$
MIZ007>008-015-221900-
EASTERN UPPER MICHIGAN

CITY           SKY/WX    TMP DP  RH WIND       PRES   REMARKS
KINROSS        CLOUDY    75  64  69 S3        30.03R
6HR MIN TEMP:  57; 6HR MAX TEMP:  75;

MACKINAC ISLAN CLOUDY    70  65  84 E5        30.03S
6HR MIN TEMP:  61; 6HR MAX TEMP:  70;

NEWBERRY       CLOUDY    69  63  79 S10       30.02S
S. S. MARIE    MOSUNNY   75  64  68 VRB5      30.03S
6HR MIN TEMP:  61; 6HR MAX TEMP:  76;

$$
MIZ004>006-011>014-085-221900-
CENTRAL UPPER MICHIGAN

CITY           SKY/WX    TMP DP  RH WIND       PRES   REMARKS
MANISTIQUE     CLOUDY    71  65  83 SE7       30.01S
ESCANABA       CLOUDY    73  64  73 SE9       29.99S
6HR MIN TEMP:  64; 6HR MAX TEMP:  73;

MENOMINEE      CLOUDY    72  66  83 SE6       29.98S
6HR MIN TEMP:  66; 6HR MAX TEMP:  73;

SAWYER-GWINN   CLOUDY    72  64  78 SE5       30.02R
$$
MIZ001>003-009>011-084-221900-
WESTERN UPPER MICHIGAN

CITY           SKY/WX    TMP DP  RH WIND       PRES   REMARKS
IRON MOUNTAIN  CLOUDY    69  66  90 SE7       29.99S
6HR MIN TEMP:  64; 6HR MAX TEMP:  69;

HOUGHTON       CLOUDY    66  58  75 E8        30.00S
6HR MIN TEMP:  63; 6HR MAX TEMP:  67;

COPPER HARBOR    N/A     66  57  72 S5        30.00S
6HR MIN TEMP:  55; 6HR MAX TEMP:  70;

IRONWOOD       CLOUDY    72  68  88 N3        29.95S
6HR MIN TEMP:  64; 6HR MAX TEMP:  72;

$$

ABBREVIATIONS USED IN REMARKS
   TC - TEMPERATURE IN CELSIUS
  WCI - WIND CHILL INDEX
   HX - HEAT INDEX
  VSB - VISIBILITY




USA.gov is the U.S. government's official web portal to all federal, state and local government web resources and services.